Location: Ballingbuur
(53.0000°N, 5.7667°E)
Time: 05:15:40
(UTC+00:00)

CZ-2C R/B - Pass Details

Date: 29 November 2020
Orbit: 785 x 870 km, 98.2° (Epoch: 23 January)

Event Time Altitude Azimuth Distance (km) Brightness Sun altitude
Rises 04:49:48 0° 132° (SE) 3,402 6.7 -22.3°
Reaches altitude 10° 04:52:23 10° 123° (ESE) 2,457 6.0 -21.9°
Maximum altitude 04:57:11 33° 61° (ENE) 1,372 4.2 -21.2°
Drops below altitude 10° 05:01:54 10° 359° (N) 2,421 5.0 -20.5°
Sets 05:04:25 0° 350° (N) 3,343 5.6 -20.1°
